• In Netherlands
  • List of Countries
  • For 7 days
  • Water Temperature
  • Satellite Maps
  • Weather Map
  • Weather Widgets
  • user-avatar
    Login

    Hourly Weather Kalat

    Today, 21 January, Sunday

    Time Temperature Precipitation Wind Pressure Humidity
    00:00 -16°C° 0 mm 4 mps 468 mmHg 20%
    01:00 -16°C° 0 mm 4 mps 468 mmHg 19%
    02:00 -16°C° 0 mm 4 mps 468 mmHg 18%
    03:00 -16°C° 0 mm 4 mps 468 mmHg 18%
    04:00 -16°C° 0 mm 4 mps 467 mmHg 18%
    05:00 -16°C° 0 mm 4 mps 467 mmHg 17%
    06:00 -16°C° 0 mm 4 mps 467 mmHg 18%
    07:00 -16°C° 0 mm 4 mps 467 mmHg 18%
    08:00 -16°C° 0 mm 4 mps 467 mmHg 19%
    09:00 -14°C° 0 mm 4 mps 469 mmHg 29%
    10:00 -10°C° 0 mm 4 mps 470 mmHg 40%
    11:00 -8°C° 0 mm 4 mps 472 mmHg 51%
    12:00 -6°C° 0 mm 3 mps 472 mmHg 52%
    13:00 -6°C° 0 mm 3 mps 473 mmHg 52%
    14:00 -5°C° 0 mm 3 mps 473 mmHg 53%
    15:00 -7°C° 0 mm 3 mps 471 mmHg 53%
    16:00 -10°C° 0 mm 3 mps 470 mmHg 53%
    17:00 -14°C° 0 mm 4 mps 468 mmHg 54%
    18:00 -15°C° 0 mm 4 mps 468 mmHg 50%
    19:00 -16°C° 0 mm 4 mps 467 mmHg 47%
    20:00 -18°C° 0 mm 4 mps 467 mmHg 44%
    21:00 -18°C° 0 mm 4 mps 467 mmHg 42%
    22:00 -18°C° 0 mm 4 mps 467 mmHg 40%
    23:00 -18°C° 0 mm 4 mps 467 mmHg 38%

    Tomorrow, 22 January, Monday

    Time Temperature Precipitation Wind Pressure Humidity
    00:00 -19°C° 0 mm 4 mps 467 mmHg 37%
    01:00 -19°C° 0 mm 4 mps 467 mmHg 36%
    02:00 -19°C° 0 mm 4 mps 466 mmHg 36%
    03:00 -19°C° 0 mm 4 mps 466 mmHg 36%
    04:00 -19°C° 0 mm 4 mps 466 mmHg 35%
    05:00 -19°C° 0 mm 4 mps 466 mmHg 35%
    06:00 -19°C° 0 mm 4 mps 466 mmHg 35%
    07:00 -19°C° 0 mm 4 mps 466 mmHg 35%
    08:00 -19°C° 0 mm 4 mps 466 mmHg 35%
    09:00 -16°C° 0 mm 4 mps 468 mmHg 40%
    10:00 -13°C° 0 mm 3 mps 470 mmHg 45%
    11:00 -9°C° 0 mm 3 mps 471 mmHg 50%
    12:00 -9°C° 0 mm 3 mps 471 mmHg 49%
    13:00 -9°C° 0 mm 3 mps 471 mmHg 48%
    14:00 -7°C° 0 mm 2 mps 471 mmHg 48%
    15:00 -9°C° 0 mm 2 mps 469 mmHg 51%
    16:00 -12°C° 0 mm 2 mps 468 mmHg 55%
    17:00 -14°C° 0 mm 2 mps 467 mmHg 58%
    18:00 -15°C° 0 mm 2 mps 466 mmHg 55%
    19:00 -16°C° 0 mm 2 mps 466 mmHg 51%
    20:00 -18°C° 0 mm 3 mps 466 mmHg 47%
    21:00 -18°C° 0 mm 3 mps 466 mmHg 46%
    22:00 -19°C° 0 mm 3 mps 466 mmHg 44%
    23:00 -19°C° 0 mm 3 mps 466 mmHg 43%

    Day after tomorrow, 23 January, Tuesday

    Time Temperature Precipitation Wind Pressure Humidity
    00:00 -19°C° 0 mm 3 mps 466 mmHg 42%
    01:00 -19°C° 0 mm 3 mps 465 mmHg 41%
    02:00 -19°C° 0 mm 3 mps 465 mmHg 40%
    03:00 -21°C° 0 mm 3 mps 465 mmHg 41%
    04:00 -21°C° 0 mm 3 mps 465 mmHg 41%
    05:00 -21°C° 0 mm 3 mps 465 mmHg 41%
    06:00 -19°C° 0 mm 2 mps 465 mmHg 42%
    07:00 -18°C° 0 mm 2 mps 465 mmHg 43%
    08:00 -18°C° 0 mm 2 mps 465 mmHg 44%
    09:00 -16°C° 0 mm 2 mps 467 mmHg 44%
    10:00 -14°C° 0 mm 2 mps 468 mmHg 45%
    11:00 -9°C° 0 mm 1 mps 470 mmHg 45%
    12:00 -9°C° 0 mm 1 mps 469 mmHg 45%
    13:00 -9°C° 0 mm 1 mps 469 mmHg 45%
    14:00 -8°C° 0 mm 1 mps 469 mmHg 46%
    15:00 -10°C° 0 mm 1 mps 468 mmHg 51%
    16:00 -12°C° 0 mm 1 mps 466 mmHg 56%
    17:00 -13°C° 0 mm 0 mps 465 mmHg 61%
    18:00 -14°C° 0 mm 1 mps 465 mmHg 59%
    19:00 -17°C° 0 mm 2 mps 465 mmHg 58%
    20:00 -19°C° 0 mm 3 mps 464 mmHg 57%
    21:00 -19°C° 0 mm 3 mps 464 mmHg 54%
    22:00 -19°C° 0 mm 3 mps 464 mmHg 50%
    23:00 -19°C° 0 mm 3 mps 464 mmHg 47%

    24 January, Wednesday

    Time Temperature Precipitation Wind Pressure Humidity
    00:00 -19°C° 0 mm 3 mps 464 mmHg 42%
    01:00 -19°C° 0 mm 3 mps 464 mmHg 38%
    02:00 -19°C° 0 mm 3 mps 464 mmHg 34%
    03:00 -19°C° 0 mm 3 mps 464 mmHg 31%
    04:00 -19°C° 0 mm 3 mps 464 mmHg 28%
    05:00 -19°C° 0 mm 3 mps 463 mmHg 25%
    06:00 -17°C° 0 mm 2 mps 464 mmHg 25%
    07:00 -17°C° 0 mm 2 mps 465 mmHg 26%
    08:00 -17°C° 0 mm 2 mps 465 mmHg 27%
    09:00 -14°C° 0 mm 2 mps 467 mmHg 29%
    10:00 -10°C° 0 mm 1 mps 468 mmHg 32%
    11:00 -8°C° 0 mm 1 mps 469 mmHg 35%
    12:00 -7°C° 0 mm 1 mps 469 mmHg 38%
    13:00 -7°C° 0 mm 1 mps 469 mmHg 41%
    14:00 -7°C° 0 mm 1 mps 469 mmHg 44%
    15:00 -8°C° 0 mm 1 mps 468 mmHg 49%
    16:00 -10°C° 0 mm 1 mps 467 mmHg 54%
    17:00 -11°C° 0 mm 1 mps 466 mmHg 60%
    18:00 -12°C° 0 mm 1 mps 466 mmHg 61%
    19:00 -13°C° 0 mm 1 mps 466 mmHg 63%
    20:00 -15°C° 0 mm 2 mps 466 mmHg 64%
    21:00 -15°C° 0 mm 2 mps 466 mmHg 65%
    22:00 -16°C° 0 mm 2 mps 466 mmHg 67%
    23:00 -16°C° 0 mm 2 mps 466 mmHg 68%

    25 January, Thursday

    Time Temperature Precipitation Wind Pressure Humidity
    00:00 -16°C° 0 mm 2 mps 466 mmHg 69%
    01:00 -16°C° 0 mm 2 mps 466 mmHg 70%
    02:00 -16°C° 0 mm 2 mps 466 mmHg 72%
    03:00 -16°C° 0 mm 2 mps 466 mmHg 74%
    04:00 -16°C° 0 mm 2 mps 466 mmHg 76%
    05:00 -16°C° 0 mm 2 mps 466 mmHg 78%
    06:00 -16°C° 0 mm 2 mps 466 mmHg 79%
    07:00 -16°C° 0 mm 2 mps 466 mmHg 81%
    08:00 -16°C° 0 mm 2 mps 466 mmHg 82%
    09:00 -15°C° 0 mm 2 mps 467 mmHg 79%
    10:00 -15°C° 0 mm 3 mps 468 mmHg 77%
    11:00 -14°C° 0 mm 3 mps 469 mmHg 74%
    12:00 -14°C° 0 mm 3 mps 469 mmHg 73%
    13:00 -13°C° 0 mm 3 mps 468 mmHg 73%
    14:00 -13°C° 0 mm 3 mps 468 mmHg 72%
    15:00 -14°C° 0 mm 3 mps 468 mmHg 75%
    16:00 -15°C° 0 mm 3 mps 467 mmHg 79%
    17:00 -16°C° 0 mm 3 mps 466 mmHg 82%
    18:00 -18°C° 0 mm 3 mps 466 mmHg 84%
    19:00 -19°C° 0 mm 3 mps 466 mmHg 85%
    20:00 -21°C° 0 mm 3 mps 465 mmHg 86%
    21:00 -21°C° 0 mm 3 mps 465 mmHg 86%
    22:00 -22°C° 0 mm 3 mps 465 mmHg 85%
    23:00 -22°C° 0 mm 3 mps 465 mmHg 84%

    26 January, Friday

    Time Temperature Precipitation Wind Pressure Humidity
    00:00 -22°C° 0 mm 3 mps 465 mmHg 84%
    01:00 -22°C° 0 mm 3 mps 464 mmHg 83%
    02:00 -23°C° 0 mm 3 mps 464 mmHg 82%
    03:00 -23°C° 0 mm 3 mps 464 mmHg 82%
    04:00 -23°C° 0 mm 3 mps 464 mmHg 82%
    05:00 -23°C° 0 mm 3 mps 464 mmHg 81%
    06:00 -23°C° 0 mm 3 mps 464 mmHg 80%
    07:00 -23°C° 0 mm 3 mps 465 mmHg 79%
    08:00 -23°C° 0 mm 3 mps 465 mmHg 79%
    09:00 -21°C° 0 mm 3 mps 466 mmHg 74%
    10:00 -18°C° 0 mm 3 mps 468 mmHg 70%
    11:00 -15°C° 0 mm 3 mps 469 mmHg 65%
    12:00 -15°C° 0 mm 3 mps 469 mmHg 65%
    13:00 -14°C° 0 mm 3 mps 469 mmHg 64%
    14:00 -14°C° 0 mm 3 mps 469 mmHg 64%
    15:00 -15°C° 0 mm 3 mps 468 mmHg 68%
    16:00 -16°C° 0 mm 3 mps 467 mmHg 72%
    17:00 -17°C° 0 mm 2 mps 466 mmHg 76%
    18:00 -18°C° 0 mm 2 mps 465 mmHg 76%
    19:00 -21°C° 0 mm 3 mps 465 mmHg 76%
    20:00 -22°C° 0 mm 3 mps 464 mmHg 75%
    21:00 -23°C° 0 mm 3 mps 464 mmHg 73%
    22:00 -23°C° 0 mm 3 mps 464 mmHg 71%
    23:00 -23°C° 0 mm 3 mps 464 mmHg 69%
    Show more